This is the latest recevied weather packets stored in our database for station/object W8RD. If no packets are shown the sender has not sent any weather packets the latest 10 day(s).
| Time | Temp. | Humidity | Pressure | Rain* | Wind** | Luminosity | Snow |
|---|---|---|---|---|---|---|---|
| 1777208146 | 25° C | 85% | 1013.7 hPa | 0 mm | - | 28 W/m² | - |
| 1777207541 | 24.44° C | 85% | 1013.6 hPa | 0 mm | - | 38 W/m² | - |
| 1777206937 | 24.44° C | 85% | 1013.4 hPa | 0 mm | - | 81 W/m² | - |
| 1777206334 | 23.89° C | 87% | 1013.6 hPa | 0 mm | - | 47 W/m² | - |
| 1777205732 | 23.33° C | 90% | 1013.4 hPa | 0 mm | - | 29 W/m² | - |
| 1777205129 | 23.33° C | 92% | 1013.5 hPa | 0 mm | - | 24 W/m² | - |
| 1777204527 | 22.78° C | 94% | 1013 hPa | 0 mm | - | 17 W/m² | - |
| 1777203925 | 22.78° C | 95% | 1012.9 hPa | 0 mm | - | 23 W/m² | - |
| 1777203321 | 22.22° C | 96% | 1012.8 hPa | 0 mm | - | 27 W/m² | - |
| 1777202720 | 22.22° C | 96% | 1012.7 hPa | 0 mm | - | 15 W/m² | - |
| 1777202120 | 21.67° C | 96% | 1012.6 hPa | 0 mm | - | 8 W/m² | - |
| 1777201520 | 21.67° C | 96% | 1012.4 hPa | 0 mm | - | 4 W/m² | - |
| 1777200916 | 21.67° C | 96% | 1012.5 hPa | 0 mm | - | 1 W/m² | - |
| 1777200312 | 21.67° C | 96% | 1012.4 hPa | 0 mm | - | 0 W/m² | - |
| 1777199710 | 21.11° C | 96% | 1012.3 hPa | 0 mm | - | 0 W/m² | - |
| 1777199106 | 20.56° C | 96% | 1012.5 hPa | 0 mm | - | 0 W/m² | - |
| 1777198504 | 20.56° C | 96% | 1012.3 hPa | 0 mm | - | 0 W/m² | - |
| 1777197902 | 20.56° C | 96% | 1012.1 hPa | 0 mm | - | 0 W/m² | - |
| 1777197299 | 20.56° C | 96% | 1011.8 hPa | 0 mm | - | 0 W/m² | - |
| 1777196699 | 20.56° C | 95% | 1011.9 hPa | 0 mm | - | 0 W/m² | - |
| 1777196099 | 20.56° C | 95% | 1011.8 hPa | 0 mm | - | 0 W/m² | - |
| 1777195495 | 20.56° C | 95% | 1011.8 hPa | 0 mm | - | 0 W/m² | - |
| 1777194893 | 20.56° C | 95% | 1011.8 hPa | 0 mm | - | 0 W/m² | - |
| 1777194292 | 20.56° C | 95% | 1011.8 hPa | 0 mm | - | 0 W/m² | - |
| 1777193688 | 20.56° C | 95% | 1011.5 hPa | 0 mm | - | 0 W/m² | - |
* Rain latest hour (hover to see other rain measurements)
** Current wind speed in m/s (hover to see current wind gust speed)